TimeHST,TemperatureF,Dew PointF,Humidity,Sea Level PressureIn,VisibilityMPH,Wind Direction,Wind SpeedMPH,Gust SpeedMPH,PrecipitationIn,Events,Conditions,WindDirDegrees,DateUTC
12:54 AM,71.1,70.0,96,30.05,10.0,NNE,10.4,-,0.02,,Mostly Cloudy,30,2012-11-11 10:54:00
1:54 AM,-9999,-9999,N/A,30.03,10.0,NE,9.2,-,0.00,Rain,Light Rain,50,2012-11-11 11:54:00
3:54 AM,71.1,69.1,93,30.02,10.0,NE,11.5,-,N/A,,Clear,40,2012-11-11 13:54:00
4:54 AM,71.1,70.0,96,30.03,10.0,NE,12.7,-,0.00,,Partly Cloudy,50,2012-11-11 14:54:00
5:54 AM,71.6,66.2,83,30.04,10.0,NE,5.8,-,N/A,,Mostly Cloudy,40,2012-11-11 15:54:00
7:54 AM,73.9,68.0,82,30.07,10.0,NE,10.4,-,N/A,,Partly Cloudy,50,2012-11-11 17:54:00
8:54 AM,75.0,69.1,82,30.07,10.0,ENE,13.8,25.3,N/A,,Partly Cloudy,60,2012-11-11 18:54:00
9:54 AM,79.0,70.0,74,30.08,10.0,ENE,20.7,26.5,N/A,,Partly Cloudy,60,2012-11-11 19:54:00
10:54 AM,82.0,70.0,67,30.06,10.0,NE,20.7,26.5,N/A,,Partly Cloudy,50,2012-11-11 20:54:00
11:54 AM,82.9,70.0,65,30.02,10.0,ENE,20.7,33.4,N/A,,Scattered Clouds,60,2012-11-11 21:54:00
12:54 PM,82.9,71.1,67,30.00,10.0,ENE,19.6,28.8,N/A,,Scattered Clouds,70,2012-11-11 22:54:00
1:54 PM,82.0,69.1,65,29.98,10.0,ENE,20.7,33.4,N/A,,Scattered Clouds,70,2012-11-11 23:54:00
2:54 PM,82.0,71.1,69,29.98,10.0,ENE,23.0,31.1,N/A,,Scattered Clouds,70,2012-11-12 00:54:00
3:54 PM,80.1,71.1,74,29.98,10.0,ENE,19.6,36.8,N/A,,Scattered Clouds,60,2012-11-12 01:54:00
4:54 PM,78.1,71.1,79,30.00,10.0,ENE,20.7,33.4,N/A,,Scattered Clouds,60,2012-11-12 02:54:00
5:54 PM,75.0,71.1,87,30.03,10.0,NE,18.4,23.0,N/A,,Scattered Clouds,50,2012-11-12 03:54:00
6:54 PM,75.0,71.1,87,30.05,10.0,NE,15.0,-,N/A,,Clear,50,2012-11-12 04:54:00
7:54 PM,73.9,71.1,91,30.07,10.0,NE,11.5,-,N/A,,Clear,40,2012-11-12 05:54:00
8:54 PM,73.9,71.1,91,30.08,10.0,NE,15.0,-,0.00,,Partly Cloudy,40,2012-11-12 06:54:00
9:54 PM,73.0,71.1,93,30.09,10.0,NE,11.5,-,N/A,,Partly Cloudy,40,2012-11-12 07:54:00
10:54 PM,73.0,71.1,93,30.10,10.0,NE,13.8,-,N/A,,Clear,40,2012-11-12 08:54:00
11:54 PM,73.9,70.0,87,30.10,10.0,ENE,12.7,-,N/A,,Scattered Clouds,60,2012-11-12 09:54:00